Regional Weather Roundup
Issued by NWS Bismarck, ND

Home | Current Version | Previous Version | Text Only | Print | Product List | Glossary On
Versions: 1 2 3 4 5 6 7 8 9 10 11 12 13 14 15 16 17 18 19 20 21 22 23 24 25 26 27 28 29 30 31 32 33 34 35 36 37 38 39 40 41 42 43 44 45 46 47 48 49 50
000
ASUS43 KBIS 201459
RWRBIS

NWR BROADCAST TEXT
NATIONAL WEATHER SERVICE BISMARCK ND
1000 AM CDT WED AUG 20 2014

NOTE: "FAIR" INDICATES FEW OR NO CLOUDS BELOW 12,000 FEET WITH NO
SIGNIFICANT WEATHER AND/OR OBSTRUCTIONS TO VISIBILITY.


CITY           SKY/WX    TMP DP  RH WIND       PRES   REMARKS
WILLISTON      CLOUDY    70  64  81 SE7       29.63F
MINOT          MOSUNNY   76  63  64 SE9       29.67R
MINOT AFB      NOT AVBL
BISMARCK       CLOUDY    74  65  73 S9        29.72S
DICKINSON      NOT AVBL
GARRISON         N/A     71  65  81 SE6       29.67F
HETTINGER ARPT CLOUDY    69  63  81 SE7       29.72R
JAMESTOWN      NOT AVBL
BEACH            N/A     72  59  64 CALM      29.67S
CARRINGTON     FAIR      72  72 100 SE14      29.76S
CROSBY         FAIR      66  66 100 SE10      29.65R
HARVEY         FAIR      75  68  78 SE12      29.71S
HAZEN          FAIR      70  63  78 S6        29.68S
LINTON         FAIR      72  68  88 SE9       29.72R
MANDAN         FAIR      72  64  78 SE10      29.72F
STANLEY        FAIR      72  66  83 SW7       29.70R
TIOGA          TSTM      66  66 100 CALM      29.73R
WATFORD CITY   FAIR      72  63  73 N7        29.64R
$$

CITY           SKY/WX    TMP DP  RH WIND       PRES   REMARKS
GRAND FORKS    MOSUNNY   73  65  75 SE10      29.78S
GRAND FORKS AF NOT AVBL
DEVILS LAKE    SUNNY     73  63  68 SE10      29.73F
FARGO          SUNNY     75  65  70 SE14      29.78F
CAVALIER       FAIR      72  64  78 S9        29.78S
GRAFTON        FAIR      72  64  78 S12       29.78S
GWINNER        SUNNY     73  70  88 SE10      29.79S
LANGDON        FAIR      75  64  69 SE12      29.77F
ROLLA          FAIR      72  70  94 S13       29.75S
$$

CITY           SKY/WX    TMP DP  RH WIND       PRES   REMARKS
ABERDEEN       SUNNY     75  66  73 S13G21    29.76S
MOBRIDGE       CLOUDY    71  64  78 SE13      29.71R
RAPID CITY     CLOUDY    69  62  78 CALM      29.73F
GLASGOW        MOSUNNY   71  60  68 NW14      29.68R
SIDNEY         CLOUDY    72  64  78 E10       29.66S
WOLF POINT     PTSUNNY   71  55  56 S8        29.65R
GLENDIVE       CLOUDY    72  57  60 S8        29.69R
MILES CITY     LGT RAIN  65  53  65 NW17      29.72S
BAKER          CLOUDY    72  61  68 W9        29.71S
$$

CITY           SKY/WX    TMP DP  RH WIND       PRES   REMARKS
BILLINGS       CLOUDY    70  45  40 SW10      29.84R
GREAT FALLS    PTSUNNY   65  52  62 SW3       29.83R
$$




USA.gov is the U.S. government's official web portal to all federal, state and local government web resources and services.